COSMOS 982

Satellite information

Favourite Embed

Satellite Type and Status

PAYLOADIN ORBIT

Key statistics

Satellite COSMOS 982 at a glance.

Uptime

17286

Days in orbit

Revolutions

≈ 12.4

Per day

Orbit

LEO

Low Earth Orbit

Inclination

74.0

Latest

Satellite identification and parameters

Extended collection of information and parameters for COSMOS 982.

Object identification

Identified? True

Debris? False

Object name: COSMOS 982

International designator: 1978-005G

Object number (NORAD): 10589

Object ID (CCSDS): 10589

Country: COMMONWEALTH OF INDEPENDENT STATES (CIS)

Current information (Y/N): Y

RCS size: MEDIUM

Orbital parameters

Period: 115.743 minutes

Inclination: 74.0338 deg

SMA: 7867.277 km

Apoapsis: 1514.997 km

Periapsis: 1463.287 km

RAAN: 38.4861 deg

Eccentricy: 0.0032864

Argument of periapsis: 144.7888 deg

Mean anomaly: 276.4638 deg

Mean motion: 12.44131063 rev/day

Mean motion (dot): -0.0000002 rev/day2

B* drag term: -0.000035116 1/REarth

Two-line elements (TLE)

Creation date: May 9, 2025, 2:46 a.m.

Reference frame: TEME

Reference center: EARTH

Epoch: May 8, 2025, 6:10 p.m. UTC

TLE line 0: 0 COSMOS 982

TLE line 1: 1 10589U 78005G 25128.75741226 -.00000020 00000-0 -35116-4 0 9999

TLE line 2: 2 10589 74.0338 38.4861 0032864 144.7888 276.4638 12.44131063149301

Live tracking on map

Real-time ground track for satellite COSMOS 982.

In-orbit conjunctions

A list of the most updated potential collisions computed for object COSMOS 982.

Target Orbit TCA Probability of collision Miss distance Type
SL-8 DEB LEO 2024-12-28 05:13:29 0.00010661 994.0 (m) DEBRIS

Associated space launch

Tselina-D satellites provided detailed observation of radio sources detected by the smaller Tselina-O satellites as part of the Tselina ELINT system.

COSMOS 982 was lifted into orbit during the mission ‘Vostok 8A92M | Tselina-D 14’, on board a Vostok 8A92M space rocket.

The launch took place on Jan. 10, 1978, 1:23 p.m. from 43/4 (43R).

For more information about the launch, click the button.

Launch to space Vostok 8A92M | Tselina-D 14
Vostok 8A92M | Tselina-D 14

Agency: N/A

Status: Launch Successful

Launch date: Jan. 10, 1978, 1:23 p.m. UTC

Rocket: Vostok 8A92M

Launch pad: 43/4 (43R)

Location: Plesetsk Cosmodrome, Russian Federation

...

Latest news about this satellite

There are no fresh news available about this satellite. Check back as we update our databases every day.


Newsletter sign-up

Weekly statistics, charts and insights to help you stay on top of the space industry.